Temp
86 88 88 88 85 85 82 82 80 80 80 77 76 74 74 76 78 79 82 83 83 83 81 80 79 79 78 78 78 76 75 73 73 71 71 74 75 75 75 75 76 79 80
86 87 86 87 85 83 83 80 80 79 81 79 80 77 76 77 82 80 80 83 83 82 81 80 79 79 77 76 76 76 72 72 72 69 68 66 70 72 78 74 76 76 75
84 85 86 84 85 82 81 81 80 78 79 79 78 77 77 77 76 79 80 81 82 82 81 80 79 78 78 75 75 75 72 68 70 72 69 63 62 65 70 74 72 73 72
86 85 85 83 85 84 83 81 80 79 80 78 78 76 78 73 75 79 79 81 82 82 81 81 79 78 77 76 76 74 72 70 67 70 72 69 67 62 61 68 69 70 72
88 85 85 86 87 87 84 82 82 81 81 81 79 77 78 75 76 77 79 78 79 80 82 80 79 78 78 77 74 72 71 70 68 67 66 66 67 65 61 58 63 70 68
89 88 87 87 87 88 86 84 81 80 81 80 79 77 77 76 76 78 76 78 78 81 80 81 79 78 77 75 73 73 72 70 69 68 67 66 63 62 61 58 58 60 65
90 87 85 84 85 86 85 85 81 79 81 80 80 79 78 77 77 76 78 76 77 76 81 80 78 77 76 75 74 72 71 70 69 69 68 67 65 64 62 60 58 58 62
91 88 87 86 86 87 86 85 82 80 80 81 79 80 80 79 79 78 77 77 78 79 79 80 77 76 75 74 73 72 70 71 70 70 68 67 66 65 63 61 57 57 57
91 90 89 88 87 88 87 86 83 81 80 80 81 80 80 79 80 78 77 79 79 79 77 78 77 76 74 74 73 71 71 70 71 70 69 66 66 65 64 62 61 57 55
93 92 90 89 89 89 89 88 85 82 81 82 81 81 81 81 81 80 77 77 78 78 76 76 75 74 74 73 73 73 72 70 70 70 68 67 66 65 64 63 63 60 56
94 93 93 92 91 91 90 89 87 83 82 82 83 82 82 81 81 81 79 79 78 78 76 76 75 74 72 72 71 72 70 70 71 70 68 67 67 64 64 63 61 60 57
96 95 95 94 92 91 90 90 89 87 83 83 83 82 81 82 81 80 80 78 80 78 76 75 73 73 72 70 70 70 70 71 69 70 67 66 70 65 64 61 60 59 59
88 87 95 93 92 92 92 90 90 89 86 84 83 82 81 81 81 81 80 80 79 78 76 75 73 72 71 70 70 70 70 70 72 69 67 68 66 63 63 61 59 59 60
87 84 82 83 89 93 92 91 90 90 88 84 83 81 81 81 81 81 79 79 79 78 77 75 74 71 71 71 71 71 70 69 70 70 69 68 66 64 61 60 58 57 55
84 84 83 83 83 86 89 90 89 89 88 85 83 82 83 82 82 79 79 79 78 78 76 74 72 71 71 73 71 72 70 68 69 69 70 68 69 69 66 60 57 55 52
86 85 85 85 84 82 80 85 83 84 85 83 83 82 81 80 79 78 78 78 78 75 74 72 71 71 75 70 68 73 70 68 68 68 67 68 68 66 66 65 65 62 54
86 84 84 83 81 81 82 81 81 82 84 83 82 80 80 77 78 78 78 77 76 75 73 73 73 71 71 65 67 69 67 67 67 67 66 67 69 61 59 61 62 61 63
85 85 82 81 79 81 80 81 80 79 79 79 79 79 79 78 77 77 77 75 75 75 74 72 73 68 65 64 64 68 68 68 68 68 66 64 56 57 56 55 54 55 56
83 82 82 80 79 80 80 79 78 78 78 77 78 79 79 77 76 75 74 74 74 73 71 71 70 66 62 61 62 65 65 65 64 60 61 58 56 58 57 53 52 52 54
84 83 83 80 79 78 80 78 77 77 76 77 77 78 77 76 75 75 74 74 74 72 72 69 68 65 63 59 59 63 63 61 60 57 57 60 58 56 55 51 50 49 51
84 82 79 81 79 79 81 77 77 76 77 77 77 76 75 74 75 75 73 72 70 70 69 69 68 66 62 57 57 61 61 60 60 57 56 56 57 53 52 52 49 52 52
79 81 78 76 77 78 80 76 76 76 77 76 75 74 73 74 74 72 71 70 69 67 67 68 65 62 60 56 56 56 59 61 59 58 57 56 55 54 52 52 53 53 55
77 79 78 76 76 77 77 75 75 76 75 75 74 72 72 71 71 71 69 71 68 68 67 66 63 59 59 56 54 56 57 59 58 57 58 58 56 54 54 55 56 54 51
77 76 74 73 73 76 77 77 77 76 75 72 72 72 71 70 70 71 69 68 67 66 66 65 64 59 56 56 56 58 56 57 58 59 56 58 57 57 56 54 53 52 51
75 75 73 72 71 74 75 76 76 75 72 71 71 71 70 69 60 54 52 61 54 55 65 65 63 61 57 58 56 58 57 56 54 54 55 54 53 52 51 51 51 50 50
73 73 73 72 72 75 75 75 74 73 72 70 69 69 68 64 60 59 56 51 48 47 47 53 60 56 53 49 48 49 50 50 53 55 52 51 50 50 49 49 49 49 50
MSLP
1008.11 1008.96 1009.49 1010.14 1010.79 1011.46 1012.10 1012.56 1013.22 1013.87 1014.55 1015.13 1015.56 1015.89 1016.10 1015.93 1015.68 1015.42 1015.55 1015.69 1015.46 1015.61 1015.86 1016.04 1016.38 1016.54 1016.69 1016.77 1016.80 1017.14 1017.42 1017.47 1017.19 1017.20 1016.99 1016.16 1015.73 1015.57 1015.67 1015.47 1015.40 1014.91 1014.83
1007.59 1008.19 1008.95 1009.66 1010.19 1010.97 1011.59 1012.17 1012.59 1013.21 1013.80 1014.33 1014.80 1015.22 1015.50 1015.47 1015.27 1014.92 1014.83 1014.89 1014.91 1015.21 1015.44 1015.85 1016.26 1016.46 1016.64 1016.71 1016.82 1017.06 1017.51 1017.53 1017.22 1017.49 1017.52 1017.15 1016.45 1015.78 1015.65 1015.68 1015.63 1015.54 1015.28
1006.88 1007.49 1008.10 1008.77 1009.61 1010.48 1011.12 1011.62 1012.12 1012.67 1013.19 1013.73 1014.33 1014.81 1015.13 1015.13 1015.15 1014.98 1014.82 1014.81 1014.71 1014.94 1015.23 1015.51 1015.77 1016.14 1016.40 1016.62 1016.92 1017.06 1017.37 1017.59 1017.35 1017.30 1017.50 1017.52 1017.50 1017.14 1016.35 1016.08 1015.81 1015.51 1015.51
1005.83 1006.67 1007.34 1008.02 1008.67 1009.47 1010.27 1010.97 1011.66 1012.25 1012.79 1013.33 1013.84 1014.39 1014.61 1014.85 1014.70 1014.52 1014.32 1014.18 1014.22 1014.51 1014.79 1015.07 1015.34 1015.73 1016.23 1016.43 1016.52 1016.69 1016.85 1017.23 1017.60 1017.35 1017.19 1017.24 1017.53 1017.65 1017.46 1016.57 1016.32 1016.15 1015.99
1004.64 1005.45 1006.22 1006.91 1007.56 1008.49 1009.40 1010.15 1010.88 1011.61 1012.20 1012.87 1013.32 1013.85 1014.14 1014.22 1014.14 1014.13 1013.97 1014.07 1014.17 1014.09 1014.28 1014.55 1014.95 1015.35 1015.58 1015.78 1016.22 1016.66 1016.83 1016.77 1017.25 1017.63 1017.59 1017.43 1017.31 1017.42 1017.81 1017.71 1017.12 1016.19 1016.20
1003.39 1004.37 1005.18 1006.18 1006.91 1007.67 1008.57 1009.44 1010.19 1010.85 1011.47 1012.11 1012.64 1013.09 1013.45 1013.65 1013.85 1013.85 1013.93 1013.83 1013.82 1013.99 1013.93 1014.02 1014.25 1014.60 1015.00 1015.39 1015.65 1015.99 1016.48 1016.74 1016.91 1017.07 1017.32 1017.55 1017.89 1017.97 1017.91 1017.93 1017.63 1017.23 1016.49
1002.25 1003.44 1004.53 1005.41 1006.14 1006.82 1007.64 1008.53 1009.37 1010.08 1010.65 1011.25 1011.77 1012.15 1012.65 1012.95 1013.07 1013.26 1013.55 1013.68 1013.74 1013.61 1013.59 1013.75 1014.11 1014.25 1014.63 1014.97 1015.37 1015.85 1016.27 1016.43 1016.67 1016.72 1017.14 1017.28 1017.38 1017.56 1017.66 1017.91 1017.75 1017.64 1016.79
1001.02 1002.09 1003.02 1003.97 1004.95 1005.81 1006.53 1007.46 1008.42 1009.29 1009.91 1010.37 1010.89 1011.39 1011.93 1012.39 1012.50 1012.64 1012.89 1013.13 1013.25 1013.07 1013.11 1013.48 1013.71 1013.97 1014.05 1014.63 1015.00 1015.60 1016.54 1017.62 1017.61 1016.86 1016.72 1017.09 1017.24 1017.27 1017.45 1017.65 1017.82 1017.58 1017.20
999.88 1000.69 1001.73 1002.54 1003.55 1004.65 1005.53 1006.24 1007.22 1008.24 1008.99 1009.54 1010.13 1010.68 1011.23 1011.67 1011.83 1011.95 1012.22 1012.48 1012.56 1012.53 1012.69 1012.97 1013.33 1013.66 1014.00 1014.53 1015.18 1015.67 1016.69 1016.67 1017.80 1017.28 1016.55 1016.62 1017.07 1017.09 1017.01 1017.03 1017.34 1017.49 1017.34
998.95 999.68 1000.64 1001.54 1002.39 1003.08 1003.83 1004.91 1005.86 1006.80 1007.76 1008.60 1009.19 1009.66 1010.15 1010.67 1011.13 1011.49 1011.67 1011.79 1011.93 1012.16 1012.53 1012.84 1013.09 1013.46 1013.84 1014.41 1014.67 1015.18 1015.51 1015.30 1015.88 1016.62 1016.69 1016.51 1016.77 1016.78 1016.77 1016.83 1016.89 1017.06 1017.27
997.87 998.64 999.35 1000.07 1000.71 1001.63 1002.65 1003.43 1004.41 1005.58 1006.57 1007.33 1007.96 1008.67 1009.16 1009.75 1010.26 1010.61 1010.99 1011.24 1011.41 1011.67 1012.13 1012.49 1012.91 1013.17 1013.67 1014.05 1014.37 1014.52 1015.07 1015.66 1015.09 1016.03 1015.86 1016.19 1016.27 1016.69 1016.48 1016.58 1016.98 1017.00 1016.85
996.69 997.65 998.32 998.95 1000.09 1000.93 1001.78 1002.29 1003.11 1003.85 1004.68 1005.84 1006.90 1007.63 1008.29 1008.85 1009.38 1009.85 1010.21 1010.49 1010.79 1011.25 1011.63 1012.21 1012.53 1013.08 1013.25 1013.95 1014.37 1014.71 1015.07 1015.27 1015.07 1015.52 1015.96 1016.39 1016.41 1016.43 1016.32 1016.49 1016.73 1016.79 1016.50
996.97 997.29 997.69 998.81 999.71 1000.09 1000.78 1001.52 1002.18 1002.83 1003.92 1004.75 1005.75 1006.65 1007.30 1007.95 1008.49 1009.02 1009.52 1009.96 1010.45 1010.91 1011.39 1011.85 1012.32 1012.83 1013.06 1013.94 1014.35 1014.64 1014.85 1014.79 1014.99 1015.35 1015.79 1016.06 1016.09 1016.24 1016.18 1016.35 1016.67 1016.66 1016.49
996.64 996.95 997.51 998.20 998.91 999.33 999.88 1000.50 1001.13 1001.94 1002.89 1003.84 1004.53 1005.33 1006.05 1006.76 1007.51 1008.16 1008.76 1009.42 1010.13 1010.73 1011.08 1011.58 1012.10 1012.65 1013.14 1014.02 1014.42 1014.69 1014.94 1015.13 1015.18 1015.16 1015.46 1015.59 1015.77 1016.15 1016.17 1016.12 1016.50 1016.43 1016.20
996.42 996.88 997.24 997.76 998.26 998.65 999.14 999.77 1000.25 1001.10 1002.02 1002.97 1003.73 1004.12 1004.97 1005.73 1006.66 1007.62 1008.44 1009.17 1009.69 1010.12 1010.68 1011.42 1012.12 1012.88 1013.66 1013.83 1014.28 1014.03 1014.49 1015.07 1015.46 1015.45 1015.21 1015.64 1015.77 1015.91 1015.94 1016.14 1016.33 1016.38 1015.92
995.94 996.49 996.82 997.24 997.69 998.03 998.61 999.17 999.86 1000.45 1001.26 1002.20 1002.79 1003.75 1004.65 1005.54 1006.55 1007.45 1008.14 1008.59 1009.09 1009.78 1010.62 1011.51 1012.15 1012.77 1013.17 1013.35 1013.12 1014.28 1014.25 1014.67 1015.27 1015.54 1015.54 1015.83 1015.81 1015.97 1015.95 1016.17 1015.83 1015.82 1015.94
995.21 995.79 996.17 996.81 997.28 997.76 998.24 998.80 999.39 999.96 1000.75 1001.52 1002.45 1003.47 1004.54 1005.50 1006.40 1007.07 1007.70 1008.29 1008.85 1009.58 1010.54 1011.27 1011.94 1012.64 1012.39 1013.07 1012.79 1012.91 1014.28 1014.49 1014.44 1014.90 1015.05 1015.27 1015.75 1015.93 1016.09 1016.07 1015.85 1015.63 1015.24
995.23 995.56 996.09 996.81 997.03 997.44 998.25 998.71 999.40 1000.12 1000.90 1001.83 1002.56 1003.41 1004.31 1005.35 1006.21 1006.87 1007.59 1008.34 1009.08 1009.96 1010.78 1011.15 1011.31 1011.67 1012.81 1012.21 1013.72 1013.41 1014.03 1014.58 1014.23 1014.46 1014.99 1015.19 1015.87 1016.08 1016.38 1016.19 1015.99 1015.69 1015.51
995.11 995.51 995.58 996.27 997.07 997.55 998.37 999.17 1000.08 1000.79 1001.45 1002.20 1002.81 1003.53 1004.33 1005.31 1006.21 1007.10 1007.71 1008.49 1008.99 1009.37 1010.45 1010.74 1011.50 1012.23 1012.77 1012.97 1013.17 1013.96 1014.36 1014.89 1014.70 1015.23 1015.13 1015.38 1015.72 1016.11 1016.22 1016.25 1016.46 1016.16 1015.48
994.74 995.43 995.65 996.45 997.33 998.02 998.42 999.64 1000.52 1001.26 1002.05 1002.49 1003.09 1003.75 1004.57 1005.43 1006.27 1006.81 1007.51 1008.00 1008.91 1010.21 1010.08 1011.41 1011.79 1012.39 1012.66 1013.40 1013.87 1014.40 1014.27 1015.00 1015.16 1015.52 1015.57 1015.60 1015.81 1016.06 1016.12 1016.25 1016.50 1016.51 1015.81
994.67 995.09 995.90 996.66 997.27 997.83 998.55 999.76 1000.63 1001.52 1002.11 1002.82 1003.56 1004.28 1004.87 1005.41 1005.99 1006.79 1007.61 1008.72 1009.56 1010.05 1011.26 1011.25 1012.33 1012.55 1012.80 1013.23 1013.33 1014.05 1014.55 1015.04 1015.52 1015.58 1015.61 1015.71 1015.83 1015.90 1016.01 1016.10 1016.43 1016.33 1015.65
995.45 995.88 996.85 997.61 997.95 998.43 999.11 1000.27 1001.26 1001.99 1002.65 1003.34 1004.15 1004.98 1005.48 1005.77 1006.52 1007.38 1008.53 1009.06 1009.29 1010.22 1011.41 1011.67 1012.62 1013.16 1013.74 1013.85 1014.12 1014.62 1014.60 1015.12 1015.32 1015.68 1015.61 1015.69 1015.81 1015.83 1016.00 1016.05 1016.23 1015.99 1015.49
996.59 996.92 997.58 998.35 998.99 999.34 999.82 1000.84 1001.97 1002.43 1003.29 1003.93 1004.65 1005.49 1006.01 1006.70 1007.41 1008.16 1008.98 1009.94 1009.99 1010.59 1011.40 1011.84 1012.59 1013.50 1014.05 1014.71 1014.93 1014.77 1014.95 1015.14 1015.18 1015.63 1015.47 1015.51 1015.70 1015.94 1015.93 1016.15 1016.21 1015.97 1015.64
997.80 998.37 998.80 999.54 1000.07 1000.32 1000.82 1001.54 1002.42 1003.05 1003.85 1004.67 1005.49 1006.19 1006.58 1007.17 1007.75 1008.57 1009.40 1010.10 1010.64 1011.07 1011.49 1012.02 1012.83 1013.66 1013.18 1014.53 1015.07 1015.04 1015.28 1015.20 1015.37 1015.51 1015.45 1015.49 1015.79 1016.01 1016.00 1016.27 1016.44 1016.23 1015.87
998.98 999.47 1000.07 1000.62 1001.11 1001.29 1001.74 1002.31 1002.97 1003.54 1004.48 1005.34 1006.03 1006.68 1007.24 1008.07 1009.21 1010.25 1011.09 1011.03 1011.69 1011.84 1011.85 1012.11 1012.81 1013.75 1014.18 1014.41 1014.81 1014.86 1015.07 1015.29 1015.37 1015.49 1015.70 1016.13 1016.48 1016.53 1016.69 1016.82 1016.86 1016.57 1016.28
999.91 1000.47 1001.06 1001.45 1001.93 1001.97 1002.49 1003.07 1003.53 1004.01 1004.81 1005.77 1006.51 1007.20 1008.07 1008.99 1009.95 1010.83 1011.75 1011.97 1011.92 1011.62 1011.71 1011.78 1012.25 1013.28 1013.26 1014.06 1014.49 1014.78 1015.14 1015.37 1015.45 1015.96 1016.49 1016.89 1016.96 1017.16 1017.34 1017.39 1017.35 1017.13 1016.84
Wind_Speed
11 20 17 17 11 15 13 13 12 13 10 6 6 4 4 4 4 5 7 8 7 7 6 3 2 3 1 4 3 2 1 3 3 2 4 6 2 5 4 4 4 4 3
14 14 18 15 17 17 15 11 11 13 12 8 7 4 4 4 6 5 5 8 8 8 5 6 3 2 2 2 2 3 1 2 1 1 0 3 5 5 6 4 4 4 4
17 17 17 15 14 16 16 14 12 9 10 9 5 3 3 3 2 4 4 6 7 7 6 6 5 4 1 1 2 2 3 1 3 2 2 2 3 4 3 6 5 7 4
15 17 19 17 18 16 15 15 13 11 9 8 7 8 8 5 4 5 4 5 8 8 7 7 6 4 2 2 2 4 4 3 2 3 1 1 3 1 4 4 3 4 5
19 21 22 20 19 18 17 15 16 14 13 12 9 7 10 5 4 3 6 5 5 7 8 7 7 6 5 4 6 3 2 3 2 2 2 2 3 1 2 3 6 5 2
21 19 21 20 17 16 17 16 17 16 15 14 14 12 10 8 6 7 4 4 4 7 8 8 8 7 6 6 5 5 4 3 2 2 1 1 1 3 1 1 2 3 5
20 18 20 20 18 18 18 17 18 18 17 16 16 16 12 11 10 7 7 4 3 3 9 9 6 6 6 6 6 5 5 5 4 4 2 1 0 1 1 2 3 3 3
19 21 23 22 21 20 19 19 19 18 18 17 16 15 14 8 8 8 5 4 5 5 7 8 7 7 7 6 6 4 2 2 5 4 3 2 1 1 1 1 1 4 3
21 23 22 22 23 22 20 20 19 19 19 18 15 14 13 13 11 8 6 6 6 5 6 9 9 8 7 7 5 4 2 2 5 5 4 2 1 1 1 2 1 2 5
22 20 20 21 21 21 22 20 18 21 18 18 16 14 15 14 13 9 8 7 7 6 6 6 7 7 7 6 7 5 5 8 7 3 4 2 2 2 2 2 3 1 2
21 21 22 21 23 22 22 22 20 19 20 19 17 17 15 14 13 13 9 9 7 7 7 10 10 10 7 7 6 7 3 5 7 3 3 3 3 1 2 2 2 2 2
22 18 22 22 21 22 21 23 21 20 21 19 18 17 15 15 13 12 13 7 11 6 8 9 9 7 7 4 6 5 3 7 5 5 4 4 1 3 2 1 3 3 3
11 9 20 17 18 20 20 20 20 20 16 18 18 16 16 15 15 13 11 12 8 6 9 10 10 9 6 5 3 5 6 3 5 6 4 3 1 2 1 2 3 3 3
10 8 9 10 15 19 20 19 19 19 18 17 19 19 18 16 14 13 11 9 7 6 7 10 9 6 2 3 4 4 2 2 3 3 4 2 1 2 2 3 2 4 4
10 9 7 6 7 14 16 15 16 17 17 17 17 18 16 14 13 9 7 7 7 7 8 8 6 5 3 3 6 7 7 5 3 2 2 2 3 4 6 2 2 4 3
11 10 10 9 7 10 10 13 12 14 15 15 16 13 13 10 9 8 8 7 7 7 8 8 8 7 5 9 7 5 6 4 5 1 3 2 6 6 5 3 8 6 3
10 11 11 10 9 8 8 9 11 11 15 14 12 12 11 10 8 8 7 7 7 9 9 8 7 5 6 5 8 14 6 4 5 2 2 2 4 6 5 7 8 9 12
5 7 8 7 7 8 7 7 7 7 8 8 11 12 13 11 8 8 8 8 8 9 9 7 8 8 3 10 7 9 6 3 4 4 2 3 6 6 5 6 6 7 7
6 6 8 7 7 9 9 9 8 8 9 9 11 11 12 11 10 10 11 10 10 9 6 7 6 6 6 6 8 7 4 2 2 6 8 8 6 2 4 5 6 7 7
7 9 8 7 10 8 10 10 9 9 8 8 9 10 11 12 12 12 12 9 8 4 7 4 6 9 9 5 9 3 2 4 5 5 6 9 6 4 4 3 4 6 7
8 7 9 11 9 10 11 10 9 9 9 12 12 11 10 11 11 9 7 5 6 8 4 7 5 6 8 7 10 6 4 4 3 4 3 2 2 2 3 3 3 5 6
10 12 11 8 8 9 12 10 10 11 12 12 12 9 9 8 7 9 7 8 9 9 6 6 5 5 5 8 7 9 9 4 4 4 2 3 2 5 7 6 6 9 6
9 10 12 12 8 8 9 11 11 13 12 12 12 10 9 9 8 9 8 7 7 7 6 5 7 6 5 3 4 8 8 6 4 1 1 2 4 6 5 7 5 6 5
11 12 14 14 13 12 14 14 13 11 12 12 11 10 11 10 8 6 5 4 4 4 5 5 6 5 7 4 2 3 3 4 3 3 4 2 2 4 3 5 5 4 5
13 13 13 12 12 12 13 12 12 13 12 10 9 8 7 7 8 9 6 4 5 2 3 3 5 7 4 4 5 6 4 4 3 3 4 4 4 5 5 4 4 5 5
12 12 11 11 9 12 12 10 9 10 10 9 5 5 6 7 6 6 6 15 8 11 9 4 8 2 10 10 11 12 10 9 6 5 4 3 4 5 4 4 4 4 6
Wind_Direction
170 174 179 187 171 174 173 169 164 172 168 175 180 189 201 228 249 248 196 214 184 188 204 206 124 275 292 209 170 105 33 316 353 18 337 314 53 67 14 343 346 48 350
182 176 167 178 166 170 175 173 171 164 179 174 184 175 185 221 225 236 234 190 177 187 173 176 220 231 234 42 148 140 273 283 26 227 196 337 322 345 348 334 349 11 352
185 179 180 174 168 168 179 182 179 171 174 174 160 181 206 259 218 234 242 203 178 181 183 191 206 226 207 254 154 130 162 237 320 352 187 346 249 342 329 329 338 7 357
182 181 182 179 178 180 175 177 179 178 182 172 181 192 216 213 216 214 213 188 181 190 190 191 197 211 216 175 188 177 162 125 255 326 351 165 177 236 319 333 330 356 351
186 182 184 185 184 178 180 178 182 185 184 191 195 196 211 206 218 235 226 207 205 191 189 191 196 202 210 173 147 154 173 156 172 179 331 335 347 59 138 283 326 333 293
186 183 183 183 185 179 179 182 184 190 188 186 200 208 204 203 208 235 230 233 198 196 195 196 199 204 176 160 167 168 193 205 197 192 248 170 165 301 340 327 285 243 310
180 177 179 183 186 184 181 185 186 193 192 192 199 208 213 206 208 212 218 204 192 187 204 195 180 176 162 165 164 162 188 209 195 204 227 118 196 221 283 112 279 276 290
179 181 183 183 188 190 186 186 189 193 195 198 203 208 211 215 215 218 208 216 205 209 204 199 172 162 168 162 167 175 148 307 274 236 189 193 301 72 142 224 32 314 305
181 186 184 185 185 189 191 190 188 192 194 198 202 205 206 211 216 212 202 211 224 234 193 175 167 167 164 171 165 156 140 196 262 247 220 152 222 99 349 36 228 213 310
188 185 184 186 188 189 190 190 185 190 193 198 200 205 204 208 215 215 219 202 217 221 161 161 156 165 171 173 167 157 163 183 210 196 126 135 217 300 2 302 292 314 252
190 186 188 189 190 189 190 193 188 184 192 196 197 202 206 203 205 213 211 216 215 203 173 168 164 179 181 188 161 183 189 234 156 186 176 225 198 256 260 322 347 307 280
197 187 192 192 186 192 194 197 197 191 188 191 196 200 201 203 205 207 212 199 217 198 165 162 167 169 195 177 195 188 212 235 169 185 207 220 248 283 314 122 292 271 285
143 149 191 186 193 198 197 198 197 199 190 184 189 196 199 198 205 207 203 209 214 189 160 161 174 187 206 169 192 181 248 179 182 181 188 188 253 328 309 299 316 325 314
150 143 126 154 192 201 199 197 198 195 190 184 187 192 194 196 196 200 195 192 189 192 168 167 175 170 163 119 202 243 170 176 185 177 160 187 97 307 288 39 33 320 312
155 160 151 153 153 193 194 197 196 191 187 189 190 195 191 189 190 179 168 173 179 200 151 147 137 117 114 200 203 199 168 188 197 143 118 72 86 96 101 114 300 303 296
160 170 171 168 156 159 179 187 178 179 175 182 194 180 175 160 159 146 166 170 175 139 121 128 130 166 201 207 212 168 143 151 134 198 2 326 104 122 116 44 349 333 309
174 176 178 181 173 157 151 164 170 166 177 181 174 157 148 133 142 154 160 169 138 125 132 145 150 176 142 86 116 120 120 154 136 152 147 205 87 64 35 349 345 336 329
145 155 169 178 160 147 135 125 114 128 141 142 136 135 136 139 147 147 142 103 113 118 142 162 167 145 134 119 65 110 143 129 155 214 244 83 84 53 17 352 352 335 312
121 158 170 151 137 133 127 112 104 104 108 116 126 133 137 136 129 119 114 127 137 150 152 167 124 118 124 142 159 115 127 219 258 62 85 100 92 72 29 27 345 333 308
144 154 153 125 124 131 121 113 120 116 118 123 119 119 121 123 126 133 147 150 143 153 99 118 123 139 143 136 127 130 114 87 103 89 77 81 89 65 41 17 333 323 296
104 106 115 137 142 132 120 119 120 124 118 113 112 111 121 129 132 122 114 121 117 107 115 111 139 137 138 157 132 121 105 115 96 124 93 53 213 74 328 295 316 269 296
89 97 93 84 88 102 111 114 110 118 117 117 108 102 102 102 105 108 97 111 129 125 146 135 106 71 77 91 113 123 121 134 103 115 164 183 55 1 332 354 320 326 352
78 87 95 88 67 82 104 101 118 114 111 108 107 110 95 92 102 110 118 144 132 137 158 148 130 117 109 108 160 135 134 113 93 118 288 355 346 344 357 42 51 12 3
84 82 84 85 84 86 96 106 112 103 110 107 114 118 123 129 129 138 139 134 138 156 154 139 129 147 135 157 204 163 136 80 57 350 357 11 28 14 28 62 25 5 354
91 90 92 93 92 96 95 101 108 111 107 109 114 117 117 101 76 61 34 54 61 57 119 140 137 150 157 180 189 154 132 142 119 51 49 54 47 42 28 32 16 5 6
103 99 100 98 102 96 98 97 99 100 105 107 104 107 97 93 96 100 85 50 59 48 44 136 146 40 120 142 145 120 123 109 89 66 77 57 56 54 38 28 19 7 4